Details From GGOV - Bissau Oswaldo Vieira Intl
To LPPT - Lisboa
Flight Number -
Tags Novice Generated
Created
Modified
Stats Distance 1,650 nm / 3,057 km
Max Altitude 38,700 ft / 11,796 m
Waypoints 14
Social Downloads 0
Likes 0
Share VATSIM

Download

Looking for another format? Having issues loading an existing format? Contact us
Advertisement - Login to hide

Notes

Departing runway 2 GGOV. Arriving runway 2 LPPT.

Route

GGOV +11.97_-015.62 +12.03_-015.61 +14.66_-015.08 +17.28_-014.54 +19.91_-013.99 +22.54_-013.41 +25.16_-012.81 +27.78_-012.19 +30.39_-011.54 +33.01_-010.84 +35.62_-010.11 +38.70_-009.18 LPPT

ID Type Via Altitude Latitude Longitude Leg Dist Tot Dist Heading (true) Name
O GGOV APT - 0 ft / 0 m 11.90351˚ -15.64330˚ - 0 nm - -
+11.97_-015.62 LATLON - 120 ft / 37 m 11.97055˚ -15.61547˚ 4 nm 4 nm 22° / 22° -
+12.03_-015.61 LATLON - 390 ft / 119 m 12.02841˚ -15.61329˚ 3 nm 7 nm 2° / 2° -
+14.66_-015.08 LATLON - 38,700 ft / 11,796 m 14.65697˚ -15.08474˚ 160 nm 168 nm 11° / 11° -
+17.28_-014.54 LATLON - 38,700 ft / 11,796 m 17.28466˚ -14.54381˚ 160 nm 329 nm 11° / 11° -
+19.91_-013.99 LATLON - 38,700 ft / 11,796 m 19.91087˚ -13.98721˚ 160 nm 490 nm 11° / 11° -
+22.54_-013.41 LATLON - 38,700 ft / 11,796 m 22.53528˚ -13.41182˚ 160 nm 651 nm 11° / 12° -
+25.16_-012.81 LATLON - 38,700 ft / 11,796 m 25.15757˚ -12.81412˚ 160 nm 812 nm 12° / 12° -
+27.78_-012.19 LATLON - 38,700 ft / 11,796 m 27.77735˚ -12.19015˚ 160 nm 973 nm 12° / 12° -
+30.39_-011.54 LATLON - 38,700 ft / 11,796 m 30.39420˚ -11.53539˚ 160 nm 1133 nm 12° / 12° -
+33.01_-010.84 LATLON - 38,700 ft / 11,796 m 33.00760˚ -10.84457˚ 160 nm 1294 nm 12° / 13° -
+35.62_-010.11 LATLON - 38,700 ft / 11,796 m 35.61696˚ -10.11158˚ 160 nm 1455 nm 13° / 13° -
+38.70_-009.18 LATLON - 120 ft / 37 m 38.69893˚ -9.18019˚ 190 nm 1646 nm 13° / 14° -
O LPPT APT - 0 ft / 0 m 38.76569˚ -9.14438˚ 4 nm 1650 nm 23° / 23° -

Altitude Profile

Advertisement - Login to hide

Weather


0- 5 10 15 20 25 30 35+ Temperature / ° C

Clouds and Precipitation
Forecast for 2018-05-26 06:00 UTC. Updated an hour ago

Ground ~20,000 ft ~40,000 ft Winds

GGOV

Details ICAO GGOV (OXB)
Name BISSAU OSWALDO VIEIRA INTL
Region Guinea Bissau
Timezone Africa/Bissau (UTC+0.0)
Stats Elevation 129 ft / 39 m (AMSL)
Location 11.890166° -15.648833°
Runways 1
Magnetic Variation 7.190° W

METAR

GGOV 260500Z 26006KT CAVOK 22/19 Q1011 NOSIG

Decode

TAF

TAF GGOV 252300Z 2600/2624 24010KT CAVOK= TAF GQPP 252300Z 2600/2624 36016KT 7000 NSC PROB30 TEMPO 2614/2620 4000 DRSA

Decode

Departure Runways

ID Width Length Bearing (true) Bearing (mag) Surface Threshold Offset Overrun Length
03 148 ft / 45 m 10,509 ft / 3,203 m 22.10° 29.29° Asphalt 0 ft / 0 m 1,312 ft / 400 m
21 148 ft / 45 m 10,509 ft / 3,203 m 202.10° 209.29° Asphalt 0 ft / 0 m 656 ft / 200 m

LPPT

Details ICAO LPPT (LIS)
Name Lisboa
Region Portugal
Timezone Europe/Lisbon (UTC+1.0)
Stats Elevation 374 ft / 114 m (AMSL)
Location 38.778559° -9.135146°
Runways 2
Magnetic Variation 2.309° W

METAR

LPPT 260600Z 35003KT 280V060 9999 3000E VCFG FEW001 13/11 Q1013

Decode

TAF

TAF TAF LPPT 260500Z 2606/2712 VRB03KT 9999 FEW012 PROB30 TEMPO 2606/2608 BKN008 BECMG 2608/2610 SCT018 BECMG 2612/2614 21008KT SCT030 BECMG 2615/2617 31012KT BECMG 2619/2621 34005KT FEW015 TEMPO 2702/2707 BKN010 BECMG 2707/2709 34010KT SCT020

Decode

Destination Runways

ID Width Length Bearing (true) Bearing (mag) Surface Threshold Offset Overrun Length
03 148 ft / 45 m 12,518 ft / 3,815 m 22.70° 25.01° Asphalt 296 ft / 90 m 0 ft / 0 m
17 148 ft / 45 m 7,922 ft / 2,415 m 168.38° 170.69° Asphalt 0 ft / 0 m 0 ft / 0 m
21 148 ft / 45 m 12,518 ft / 3,815 m 202.72° 205.03° Asphalt 1,969 ft / 600 m 0 ft / 0 m
35 148 ft / 45 m 7,922 ft / 2,415 m 348.38° 350.69° Asphalt 492 ft / 150 m 0 ft / 0 m

Approach Navaids

Runway Type Ident Frequency Range Bearing (true) Bearing (mag) Slope Elevation
03 Localiser ILI 109.10 MHz 18 nm / 33 km 22.74° 25.05° - 335 ft / 102 m (AMSL)
03 Glidescope ILI 109.10 MHz 10 nm / 19 km 22.71° 25.02° 3.00° 419 ft / 128 m (AMSL)
03 DME ILI 109.10 MHz 18 nm / 33 km - - - 419 ft / 128 m (AMSL)
21 Localiser ILB 109.50 MHz 18 nm / 33 km 202.59° 204.89° - 335 ft / 102 m (AMSL)
21 Glidescope ILB 109.50 MHz 10 nm / 19 km 202.71° 205.02° 3.00° 423 ft / 129 m (AMSL)
21 DME ILB 109.50 MHz 18 nm / 33 km - - - 423 ft / 129 m (AMSL)

Popular Alternatives